Home   Weather   Idar-Oberstein   Past weeks

Flag for Germany Past Weather in Idar-Oberstein, Rhineland-Palatinate, Germany — Yesterday and Last 2 Weeks

Now
57 °F

Partly sunny.


Feels Like: 55 °F
Forecast: 49 / 66 °F
Wind: 8 mph from Northwest

Location: Hahn

Current Time: Aug 20, 2017 at 3:48:34 pm

Latest Report: Aug 20, 2017 at 2:50 pm


Visibility: N/A

Pressure: 30.27 "Hg

Humidity: 72%

Dew Point: 48 °F

Location of Idar-ObersteinLocation

Past Weather in Idar-Oberstein — Graph

°F

Idar-Oberstein Temperature Yesterday

Maximum temperature yesterday: 63 °F (at 3:50 pm)
Minimum temperature yesterday: 48 °F (at 6:50 am)
Average temperature yesterday: 55 °F

High & Low Weather Summary for the Past Weeks

 TemperatureHumidityPressure
High75 °F (Aug 14, 3:50 pm)100% (Aug 6, 5:20 am)30.27 "Hg (Aug 6, 5:20 am)
Low48 °F (Aug 6, 6:20 am)38% (Aug 6, 5:50 pm)29.83 "Hg (Aug 8, 6:20 am)
Average60 °F83%30.08 "Hg
* Reported Aug 5 1:20 pm — Aug 20 1:50 pm, Idar-Oberstein. Weather by CustomWeather, © 2017

Note: Actual official high and low records may vary slightly from our data, if they occured in-between our weather recording intervals... More about our weather records

Advertising

Idar-Oberstein Weather History for the Previous 24 Hours

Scroll right to see more
 ConditionsComfort  
Time TempWeatherWind HumidityBarometerVisibility
1:50 pm
Sun, Aug 20
59 °FScattered clouds.12 mph68%30.27 "HgN/A
1:20 pm59 °FScattered clouds.10 mph68%30.27 "HgN/A
12:50 pm57 °FScattered clouds.12 mph72%30.27 "HgN/A
12:20 pm57 °FScattered clouds.13 mph72%30.27 "HgN/A
11:50 am55 °FScattered clouds.10 mph82%30.27 "HgN/A
11:20 am54 °FScattered clouds.10 mph88%30.27 "HgN/A
10:50 am54 °FScattered clouds.9 mph88%30.27 "HgN/A
10:20 am54 °FPassing clouds.7 mph88%30.24 "HgN/A
9:50 am52 °FScattered clouds.8 mph94%30.24 "HgN/A
9:20 am52 °FScattered clouds.8 mph94%30.24 "HgN/A
8:50 am52 °FScattered clouds.9 mph94%30.24 "HgN/A
8:20 am50 °FScattered clouds.8 mph100%30.24 "HgN/A
8:01 am50 °FScattered clouds.8 mph100%30.21 "HgN/A
7:50 am50 °FPartly sunny.9 mph100%30.21 "HgN/A
7:20 am50 °FBroken clouds.7 mph100%30.21 "HgN/A
6:50 am50 °FPartly sunny.8 mph100%30.21 "HgN/A
6:20 am48 °FPassing clouds.8 mph100%30.21 "HgN/A
5:50 am50 °FPassing clouds.9 mph94%30.21 "HgN/A
5:20 am48 °FPassing clouds.8 mph100%30.18 "HgN/A
4:50 am50 °FClear.8 mph94%30.18 "Hg10 mi
4:20 am50 °FClear.9 mph100%30.18 "Hg10 mi
3:50 am50 °FClear.9 mph100%30.18 "Hg10 mi
3:20 am50 °FClear.8 mph100%30.18 "Hg10 mi
2:50 am50 °FPassing clouds.6 mph100%30.18 "HgN/A
1:50 am50 °FClear.3 mph100%30.18 "Hg10 mi
1:20 am52 °FClear.5 mph94%30.18 "Hg10 mi
12:50 am52 °FClear.3 mph94%30.18 "Hg10 mi
12:20 am52 °FClear.5 mph94%30.18 "Hg10 mi
11:50 pm
Sat, Aug 19
52 °FPassing clouds.6 mph100%30.18 "HgN/A
11:20 pm52 °FPassing clouds.7 mph100%30.18 "HgN/A
10:50 pm54 °FPassing clouds.6 mph94%30.18 "HgN/A
10:20 pm52 °FPassing clouds.5 mph100%30.18 "HgN/A
9:50 pm54 °FPassing clouds.2 mph94%30.18 "HgN/A
9:20 pm54 °FClear.2 mph94%30.15 "Hg10 mi
8:50 pm55 °FClear.3 mph94%30.15 "Hg10 mi
8:20 pm55 °FPartly sunny.2 mph94%30.15 "HgN/A
7:50 pm55 °FPartly sunny.5 mph100%30.15 "HgN/A
7:20 pm55 °FPartly sunny.6 mph100%30.12 "HgN/A
6:50 pm55 °FSprinkles. Passing clouds.13 mph94%30.12 "HgN/A
6:20 pm59 °FScattered showers. Passing clouds.12 mph72%30.12 "HgN/A
5:50 pm59 °FPassing clouds.14 mph72%30.12 "HgN/A
5:20 pm61 °FPassing clouds.15 mph68%30.12 "HgN/A
4:50 pm61 °FPassing clouds.15 mph63%30.12 "HgN/A
4:20 pm63 °FPassing clouds.14 mph59%30.12 "HgN/A
3:50 pm63 °FPassing clouds.15 mph59%30.12 "HgN/A
3:20 pm61 °FPassing clouds.13 mph63%30.12 "HgN/A
Weather by CustomWeather, © 2017

See weather overviewHow to use our weather pages